STARLINK-5495 (55635 NORAD) Tracking and Keplerian Element Data

This shows tracking and keplerian element data for the satellite.

Feedback or suggestion? Click here.




ElementValue
Catalog55635
NameSTARLINK-5495
Epoch Orbit130
Epoch Day62.91667824
Epoch Year2023
RAAN110.2009
Inclination70
Eccentricity0.0003503
Argument of Perigee264.3433
Mean Anonmoly330.577
Mean Motion15.74937798
Decay Rate-0.00972844
L11 55635U 23021H 23062.91667824 -.00972844 00000+0 -73281-2 0 9996
L22 55635 70.0000 110.2009 0003503 264.3433 330.5770 15.74937798 1301



Live tracking and technical data element details for STARLINK-5495 (NORAD 55635). STARLINK-5495 can be tracked NOW for your location showing map with azimuth and elevation plus other details from your city location.







IsCatalogInMostPopularTable: catalog: 55635, numindb: 2
Update: records affected: 1



GetName: 55635 STARLINK-5495

Hit Count: updated at: Wed, 22 Mar 2023 16:55:21 GMT